CZ-2D DEB (43097 NORAD) Tracking and Keplerian Element Data

This shows tracking and keplerian element data for the satellite.

Feedback or suggestion? Click here.




ElementValue
Catalog43097
NameCZ-2D DEB
Epoch Orbit391
Epoch Day21.16597662
Epoch Year2018
RAAN99.3119
Inclination97.3542
Eccentricity0.005426
Argument of Perigee221.3907
Mean Anonmoly138.3278
Mean Motion15.35016048
Decay Rate4.692E-05
L11 43097U 17084D 18021.16597662 .00004692 00000-0 13410-3 0 9990
L22 43097 97.3542 99.3119 0054260 221.3907 138.3278 15.35016048 3916



Live tracking and technical data element details for CZ-2D DEB (NORAD 43097). CZ-2D DEB can be tracked NOW for your location showing map with azimuth and elevation plus other details from your city location.







IsCatalogInMostPopularTable: catalog: 43097, numindb: 652
Update: records affected: 1



GetName: 43097 CZ-2D DEB

Hit Count: updated at: Tue, 18 Jun 2024 00:24:46 GMT